Flag for Canada Weather past 2 weeks in St. Albert, Alberta, Canada

Now
57 °F

Light rain. Low clouds.


Feels Like: 52 °F
Forecast: 55 / 58 °F
Wind: 25 mph from Northwest

Location: Edmonton Municipal

Current Time: Jul 25, 2014 at 10:36:51 AM

Latest Report: Jul 25, 2014 at 10:00 AM


Visibility: 3 mi

Pressure: 29.52 "Hg

Humidity: 94%

Dew point: 55 °F

Location of St. AlbertLocation

Historic Weather in St. Albert — Graph

°F

St. Albert temperature yesterday

Maximum temperature yesterday: 79 °F (at 1:00 PM)
Minimum temperature yesterday: 61 °F (at 11:00 PM)
Average temperature yesterday: 70 °F

Past Weeks' High & Low Weather Summary

 TemperatureHumidityPressure
High84 °F (Jul 15, 3:00 PM)94% (Jul 25, 2:00 AM)30.27 "Hg (Jul 25, 2:00 AM)
Low50 °F (Jul 21, 5:00 AM)28% (Jul 24, 5:00 PM)29.48 "Hg (Jul 25, 7:54 AM)
Average66 °F61%29.90 "Hg
* Reported Jul 10 9:00 AM — Jul 25 9:01 AM, St. Albert, Weather by CustomWeather, © 2014

Note: Actual official high and low records may vary slightly from our data, if they occured in-between our weather recording intervals... More about our weather records

Advertising

St. Albert weather history for previous 24 hours

 ConditionsComfort  
Time TempWeatherWind HumidityBarometerVisibility
9:01 AM
Jul 25
57 °FRain. Overcast.23 mph94%29.50 "Hg2 mi
8:00 AM57 °FRain. Dense fog.25 mph94%29.49 "Hg1 mi
7:54 AM57 °FRain. Dense fog.35 mph94%29.48 "Hg1 mi
7:00 AM57 °FLight rain. Low clouds.22 mph94%29.50 "Hg5 mi
6:00 AM57 °FRain. Low clouds.21 mph94%29.52 "Hg4 mi
5:00 AM57 °FLight rain. Mostly cloudy.20 mph94%29.52 "Hg4 mi
4:00 AM55 °FLight rain. Low clouds.15 mph94%29.52 "Hg7 mi
3:02 AM55 °FLight rain. Passing clouds.15 mph88%29.55 "Hg9 mi
2:00 AM54 °FRain. Overcast.10 mph94%29.57 "Hg2 mi
1:58 AM55 °FRain. Overcast.12 mph88%29.58 "Hg2 mi
1:00 AM57 °FLight rain. Overcast.14 mph77%29.57 "Hg9 mi
12:00 AM59 °FLight rain. Overcast.15 mph68%29.58 "Hg9 mi
11:00 PM
Jul 24
61 °FLight rain. Overcast.12 mph72%29.59 "Hg9 mi
10:00 PM63 °FLight rain. Overcast.13 mph77%29.57 "Hg9 mi
9:00 PM64 °FMore clouds than sun.8 mph64%29.58 "Hg9 mi
8:00 PM68 °FPassing clouds.15 mph56%29.54 "Hg9 mi
7:00 PM72 °FPassing clouds.20 mph41%29.53 "Hg9 mi
6:00 PM75 °FPartly sunny.14 mph44%29.51 "Hg9 mi
5:00 PM79 °FSunny.9 mph28%29.49 "Hg9 mi
4:00 PM79 °FScattered clouds.17 mph32%29.51 "Hg9 mi
3:00 PM77 °FPassing clouds.9 mph39%29.51 "Hg9 mi
2:00 PM79 °FSunny.7 mph42%29.52 "Hg9 mi
1:00 PM79 °FSunny.8 mph42%29.53 "Hg9 mi
12:00 PM77 °FSunny.12 mph44%29.54 "Hg9 mi
11:00 AM75 °FSunny.12 mph50%29.57 "Hg9 mi
10:00 AM73 °FSunny.13 mph57%29.59 "Hg9 mi
Weather by CustomWeather, © 2014

See weather overviewHow to use our weather pages